Showing default

HAWK-2A, 47505

Orbit data source: Space-Track

HAWK-2A, 47505 is a payload satellite owned by HawkEye 360 (US) in SSO that was launched on Sun, 24 Jan 2021 UTC via an FALCON 9 launch vehicle from the Air Force Eastern Test Range (AFETR). Payloads include a variety of satellites, spacecraft, and rockets equipped with specific instruments for various scientific and technological missions. These include communications satellites like Starlink; space stations such as the ISS; scientific satellites like the Hubble; Earth observation satellites from companies like Planet Labs, Umbra, and HawkEye 360; GPS; miniature CubeSats for education and research; and military/defense satellites.

Loading next visibility...
HAWK-2A details
Identifier
47505, 2021-006CW
Orbit
SSO
Last TLE update11 hours ago
Origin
Flag of USHawkEye 360 (US)
ManufacturerUTIAS-SFL
MissionOperational Commercial Sigint
Bus & MotorDEFIANT, Unknown motor
Mass31 kg wet, 30 kg dry
Launch date (UTC)
2021-01-24 (4 years ago)
Launch vehicle
FALCON 9
Launch site
Air Force Eastern Test Range (AFETR)
Object type
Payload
Rocket body
Debris
Shape & HBRBox + 2 Pan, 1 m
Radar Cross Section0.348 m², Medium (>0.1 m² and < 1m²)

Expand to show TLE details & history

TLE from 11 hours ago
0 HAWK-2A
1 47505U 21006CW  25043.14678946  .00009806  00000-0  37737-3 0  9992
2 47505  97.3018  93.3688 0008735 144.5532 215.6289 15.26546225224543
Epoch: 2025-02-12T03:31Z
Definitive object data (Epoch: 2025-02-12T03:31:22.609Z)
Latitude-0.00002°
Longitude-101.91684°
Altitude494.125 km
Speed7.615 km/s
True Right ascension06h 13m 28s
True Declination0° 00' 00"
Sunlit
Object was in full shadow at TLE epoch
Visualization TLE readout
Latitude21.95497°
Longitude-104.40879°
Altitude492.032 km
Speed7.619 km/s
Apparent Right ascension05h 39m 50s
Apparent Declination-7° 43' 02"
Sunlit
Object is in full shadow
Visualization observer readout
Local Sidereal Time17:09:00
Azimuth345.848° N
Elevation-57.07°
Doppler factor1
Orbital elements
Apogee altitude489.092 km
Perigee altitude477.106 km
Semi-major axis6,861.236 km
Eccentricity0.0008735
Inclination97.3018°
RAAN93.3688°
Arg. of periapsis144.5532°
True anomaly215.57064°
Mean anomaly215.6289°
Eccentric anomaly215.59977°
Mean motion3.81891 °/min
BSTAR0.00037737
Orbital period94.27 mins
Loading maneuver chart data...

HAWK-2A Visibility forecast

Observer location: undefined°, undefined

Span
Click to sort rows by Start time (UTC) header in descending order
Start Az.
Max El. time (UTC)
Max El. Az.
Max El.
End time (UTC)
End Az.
4 mins2025-02-12 16:40:53.504Z334.563° NNW2025-02-12 16:42:53.504Z279.218° WNW26.343°2025-02-12 16:44:53.504Z234.023° WSW
5 mins2025-02-13 03:15:53.504Z164.458° S2025-02-13 03:17:53.504Z32.758° NE44.806°2025-02-13 03:20:53.504Z349.511° N
|